Regional Weather Roundup
Issued by NWS

Home | Current Version | Previous Version | Text Only | Print | Product List | Glossary Off
Versions: 1 2 3 4 5 6 7 8 9 10 11 12 13 14 15 16 17 18 19 20 21 22 23 24 25 26 27 28 29 30 31 32 33 34 35 36 37 38 39 40 41 42 43 44 45 46 47 48 49 50

000
ASUS43 KLOT 080500
RWRIL

ILLINOIS REGIONAL WEATHER ROUNDUP
NATIONAL WEATHER SERVICE CHICAGO/ROMEOVILLE IL
1200 AM CDT WED JUL 08 2015

NOTE: "FAIR" INDICATES FEW OR NO CLOUDS BELOW 12,000 FEET WITH NO
SIGNIFICANT WEATHER AND/OR OBSTRUCTIONS TO VISIBILITY.

* THESE STATIONS ARE NOT UNDER NWS QUALITY CONTROL. THEY ALSO MAY NOT
  REPORT WEATHER SUCH AS PRECIPITATION OR FOG.

ILZ001-002-007-009-015-016-024-080600-
NORTHWEST ILLINOIS

CITY           SKY/WX    TMP DP  RH WIND       PRES   REMARKS
MOLINE         MOCLDY    60  56  86 CALM      30.09S
STERLING*      MOCLDY    57  54  88 E5        30.11S
$$

ILZ003-004-008-010-011-017-018-080600-
NORTH CENTRAL ILLINOIS

CITY           SKY/WX    TMP DP  RH WIND       PRES   REMARKS
ROCKFORD       MOCLDY    57  51  80 CALM      30.13S
$$

ILZ005-006-012>014-019>023-080600-
NORTHEAST ILLINOIS

CITY           SKY/WX    TMP DP  RH WIND       PRES   REMARKS
CHICAGO-OHARE  MOCLDY    56  47  71 N6        30.11S
CHICAGO-MIDWAY MOCLDY    59  46  62 N7        30.10S
AURORA         MOCLDY    55  48  77 NE3       30.11S
LANSING*       PTCLDY    57  46  66 N7        30.10S
WAUKEGAN       PTCLDY    50  48  93 CALM      30.11R
DUPAGE AIRPORT MOCLDY    53  47  79 N6        30.11S
WHEELING       MOCLDY    54  48  80 N3        30.13R
NORTHERLY ISL    N/A     58  48  69 N10         N/A
$$

LMZ740>746-080600-
SOUTHERN LAKE MICHIGAN

STATION/POSITION SKY/WX   TEMP    WIND        PRES    VSBY  WAVE
                          AIR SEA DIR/SP/G                  HT/PER
                          (F)     (DEG/KT/KT) (MB)    (MI)  (FT/S)
HARRISON CRIB              58     360/ 12/ 15   N/A
BURNHAM HARBOR             58     350/  8/ 13   N/A
CALUMET HARBOR             58     350/  7/  9   N/A
BURNS HARBOR               61      10/ 14/ 18 1019.3S
MICHIGAN CITY              60     360/ 18/ 19   N/A
MICHIGAN CITY 6N           61 65   30/ 14/ 19   N/A           6/ 7
ST. JOSEPH                 60 61   70/ 14/ 16   N/A           5/ 2
$$

ILZ025>027-034>036-040-047-049-050-058-095>099-080600-
WEST-CENTRAL ILLINOIS

CITY           SKY/WX    TMP DP  RH WIND       PRES   REMARKS
QUINCY         CLOUDY    67  62  84 SE5       30.08S HAZE
MACOMB*        CLOUDY    62  60  96 CALM      30.11S FOG
$$

ILZ028>032-037-038-041>044-048-051>054-059>061-080600-
CENTRAL ILLINOIS

CITY           SKY/WX    TMP DP  RH WIND       PRES   REMARKS
DECATUR        CLOUDY    61  54  77 NE7       30.10R
PEORIA         PTCLDY    63  53  70 E8        30.11R
SPRINGFIELD    PTCLDY    65  56  72 E7        30.09S
TAYLORVILLE    NOT AVBL
$$

ILZ033-039-045-046-055>057-062-063-080600-
EAST-CENTRAL ILLINOIS

CITY           SKY/WX    TMP DP  RH WIND       PRES   REMARKS
CHAMPAIGN      FAIR      59  51  75 NE7       30.10R
MATTOON        CLOUDY    62  53  72 NE9       30.08R
$$

ILZ079-100>102-080600-
SOUTHWEST ILLINOIS

CITY           SKY/WX    TMP DP  RH WIND       PRES   REMARKS
BELLEVILLE     CLOUDY    64  64 100 NE6       30.06S
CAHOKIA*       CLOUDY    65  62  90 E5        30.07S
SPARTA*        CLOUDY    64  63  97 NE7       30.08R
$$

ILZ064>066-069>071-074>076-080>082-084>086-088>090-092>094-080600-
SOUTH-CENTRAL ILLINOIS

CITY           SKY/WX    TMP DP  RH WIND       PRES   REMARKS
CARBONDALE     CLOUDY    67  65  93 N6        30.06R
MT. VERNON     CLOUDY    64  59  82 N6        30.07S
SALEM*         LGT RAIN  67  59  76 NE5       30.08S
$$

ILZ067-068-072-073-078-083-087-091-080600-
SOUTHEAST ILLINOIS

CITY           SKY/WX    TMP DP  RH WIND       PRES   REMARKS
LAWRENCEVILLE  CLOUDY    65  58  78 N7        30.07R
HARRISBURG*    LGT RAIN  68  68 100 NE3       30.05F
$$

ABBREVIATIONS USED IN REMARKS
   TC - TEMPERATURE IN CELSIUS
  WCI - WIND CHILL INDEX
   HX - HEAT INDEX
  VSB - VISIBILITY
$$



USA.gov is the U.S. government's official web portal to all federal, state and local government web resources and services.